QPF
0.03 0.03 0.03 0.03 0.03 0.03 0.03 0.04 0.05 0.05 0.04 0.03 0.03 0.03 0.02 0.02 0.01 0.01 0.01 0.01 0.01 0.01 0.01 0.01 0.02 0.01 0.01 0.02 0.03 0.04 0.04 0.03 0.03 0.03 0.03 0.03 0.04 0.04
0.02 0.02 0.02 0.02 0.02 0.02 0.02 0.02 0.03 0.04 0.04 0.02 0.02 0.02 0.02 0.02 0.01 0.01 0.01 0.01 0.01 0.01 0.02 0.02 0.01 0.02 0.02 0.02 0.03 0.04 0.04 0.04 0.03 0.03 0.03 0.04 0.04 0.03
0.02 0.02 0.02 0.02 0.02 0.02 0.02 0.02 0.02 0.03 0.04 0.03 0.02 0.02 0.02 0.01 0.01 0.01 0.01 0.01 0.01 0.01 0.02 0.01 0.01 0.02 0.02 0.02 0.02 0.04 0.05 0.04 0.03 0.03 0.03 0.04 0.04 0.03
0.01 0.01 0.01 0.01 0.01 0.02 0.02 0.02 0.02 0.02 0.03 0.04 0.04 0.02 0.02 0.02 0.01 0.01 0.01 0.01 0.01 0.01 0.01 0.01 0.01 0.02 0.03 0.03 0.02 0.03 0.05 0.05 0.03 0.03 0.03 0.03 0.04 0.04
0.01 0.01 0.01 0.01 0.01 0.01 0.01 0.01 0.02 0.02 0.02 0.03 0.04 0.03 0.02 0.02 0.02 0.01 0.01 0.01 0.00 0.00 0.01 0.01 0.02 0.02 0.03 0.02 0.02 0.03 0.05 0.06 0.05 0.04 0.04 0.04 0.03 0.03
0.01 0.01 0.01 0.01 0.01 0.01 0.01 0.01 0.01 0.01 0.02 0.03 0.04 0.04 0.03 0.02 0.02 0.01 0.01 0.01 0.01 0.01 0.01 0.02 0.02 0.03 0.03 0.02 0.03 0.04 0.07 0.07 0.08 0.08 0.06 0.05 0.05 0.05
0.01 0.01 0.01 0.01 0.01 0.01 0.02 0.01 0.01 0.01 0.02 0.03 0.03 0.04 0.03 0.02 0.02 0.02 0.02 0.01 0.01 0.02 0.02 0.02 0.03 0.03 0.04 0.04 0.04 0.04 0.06 0.07 0.09 0.11 0.09 0.07 0.06 0.06
0.00 0.01 0.01 0.01 0.01 0.01 0.02 0.02 0.01 0.01 0.02 0.02 0.02 0.02 0.02 0.01 0.01 0.02 0.02 0.02 0.02 0.02 0.03 0.03 0.04 0.04 0.04 0.03 0.02 0.03 0.04 0.06 0.08 0.10 0.11 0.08 0.06 0.04
0.01 0.01 0.02 0.02 0.01 0.01 0.02 0.02 0.02 0.02 0.01 0.01 0.02 0.01 0.01 0.01 0.01 0.02 0.03 0.03 0.03 0.03 0.03 0.04 0.03 0.04 0.04 0.03 0.03 0.03 0.03 0.05 0.06 0.07 0.09 0.09 0.08 0.07
0.01 0.01 0.02 0.02 0.01 0.01 0.02 0.02 0.02 0.02 0.02 0.01 0.01 0.01 0.01 0.01 0.02 0.03 0.03 0.04 0.03 0.03 0.03 0.03 0.03 0.04 0.03 0.03 0.04 0.03 0.04 0.04 0.05 0.06 0.07 0.07 0.07 0.08
0.01 0.01 0.02 0.01 0.01 0.01 0.01 0.02 0.02 0.03 0.04 0.03 0.02 0.02 0.02 0.02 0.03 0.04 0.04 0.04 0.03 0.03 0.02 0.03 0.03 0.03 0.03 0.04 0.04 0.04 0.04 0.04 0.05 0.06 0.07 0.06 0.06 0.06
0.01 0.01 0.02 0.02 0.02 0.01 0.01 0.02 0.02 0.02 0.03 0.04 0.05 0.05 0.04 0.03 0.03 0.03 0.03 0.04 0.03 0.03 0.03 0.03 0.03 0.03 0.04 0.04 0.03 0.03 0.03 0.04 0.05 0.05 0.06 0.06 0.05 0.05
0.02 0.01 0.01 0.02 0.02 0.01 0.01 0.01 0.01 0.01 0.02 0.03 0.04 0.06 0.07 0.05 0.05 0.04 0.04 0.04 0.03 0.03 0.03 0.03 0.03 0.03 0.03 0.04 0.03 0.02 0.02 0.03 0.04 0.04 0.05 0.05 0.05 0.04
0.02 0.02 0.02 0.02 0.02 0.01 0.02 0.02 0.02 0.02 0.02 0.02 0.03 0.04 0.05 0.06 0.05 0.04 0.04 0.04 0.03 0.03 0.02 0.03 0.03 0.03 0.03 0.03 0.03 0.02 0.02 0.03 0.03 0.03 0.03 0.03 0.03 0.02
0.03 0.03 0.02 0.02 0.02 0.02 0.02 0.02 0.02 0.02 0.02 0.02 0.02 0.02 0.03 0.04 0.04 0.04 0.04 0.04 0.04 0.04 0.03 0.04 0.04 0.04 0.03 0.03 0.02 0.02 0.02 0.03 0.03 0.03 0.03 0.02 0.01 0.01
0.03 0.03 0.02 0.02 0.02 0.03 0.03 0.03 0.02 0.02 0.02 0.02 0.02 0.02 0.03 0.04 0.05 0.04 0.04 0.04 0.04 0.04 0.03 0.03 0.04 0.04 0.04 0.03 0.02 0.02 0.02 0.03 0.03 0.03 0.02 0.02 0.01 0.01
0.02 0.02 0.02 0.02 0.03 0.03 0.03 0.03 0.03 0.03 0.02 0.02 0.02 0.02 0.03 0.03 0.04 0.05 0.05 0.04 0.04 0.04 0.04 0.03 0.03 0.03 0.04 0.03 0.03 0.03 0.02 0.03 0.03 0.03 0.02 0.02 0.01 0.01
0.03 0.02 0.02 0.02 0.02 0.02 0.02 0.03 0.03 0.03 0.03 0.02 0.02 0.02 0.02 0.02 0.03 0.03 0.04 0.04 0.04 0.04 0.04 0.04 0.03 0.03 0.03 0.04 0.03 0.03 0.03 0.04 0.04 0.03 0.02 0.02 0.01 0.01
0.03 0.03 0.03 0.03 0.02 0.02 0.02 0.03 0.03 0.03 0.03 0.02 0.02 0.03 0.02 0.03 0.03 0.03 0.04 0.04 0.04 0.04 0.04 0.04 0.04 0.04 0.04 0.04 0.03 0.03 0.03 0.04 0.04 0.02 0.02 0.01 0.02 0.01
0.03 0.03 0.03 0.03 0.03 0.02 0.03 0.03 0.03 0.04 0.03 0.03 0.03 0.03 0.03 0.03 0.03 0.03 0.03 0.04 0.04 0.05 0.05 0.05 0.04 0.04 0.05 0.04 0.04 0.03 0.03 0.04 0.04 0.02 0.01 0.01 0.01 0.01
0.02 0.02 0.02 0.03 0.03 0.03 0.03 0.03 0.03 0.04 0.04 0.04 0.04 0.04 0.04 0.04 0.03 0.03 0.03 0.03 0.04 0.05 0.05 0.05 0.04 0.03 0.04 0.04 0.05 0.04 0.04 0.04 0.04 0.03 0.02 0.02 0.01 0.01
0.02 0.02 0.02 0.02 0.03 0.03 0.03 0.03 0.03 0.03 0.04 0.04 0.05 0.05 0.05 0.05 0.04 0.04 0.04 0.04 0.05 0.05 0.05 0.04 0.03 0.03 0.04 0.05 0.05 0.05 0.05 0.04 0.04 0.03 0.03 0.03 0.03 0.03
0.02 0.03 0.03 0.02 0.02 0.03 0.03 0.03 0.03 0.03 0.03 0.04 0.04 0.04 0.05 0.05 0.05 0.05 0.05 0.05 0.05 0.05 0.05 0.04 0.03 0.03 0.03 0.04 0.04 0.05 0.04 0.04 0.04 0.04 0.04 0.04 0.03 0.03
MSLP
1018.76 1018.97 1019.01 1018.87 1018.55 1018.08 1017.51 1016.93 1016.42 1016.05 1015.89 1015.96 1016.28 1016.82 1017.53 1018.37 1019.28 1020.19 1021.07 1021.89 1022.62 1023.24 1023.77 1024.18 1024.50 1024.71 1024.84 1024.88 1024.86 1024.80 1024.71 1024.61 1024.49 1024.35 1024.19 1023.98 1023.70 1023.33
1018.38 1018.66 1018.79 1018.74 1018.52 1018.13 1017.65 1017.13 1016.66 1016.33 1016.17 1016.24 1016.56 1017.10 1017.82 1018.67 1019.58 1020.52 1021.42 1022.25 1022.99 1023.61 1024.12 1024.51 1024.80 1024.98 1025.07 1025.10 1025.07 1025.01 1024.93 1024.85 1024.77 1024.68 1024.56 1024.40 1024.16 1023.84
1017.83 1018.15 1018.34 1018.38 1018.25 1017.97 1017.60 1017.18 1016.80 1016.53 1016.43 1016.54 1016.88 1017.44 1018.17 1019.03 1019.96 1020.91 1021.82 1022.65 1023.39 1024.00 1024.49 1024.85 1025.11 1025.26 1025.33 1025.33 1025.29 1025.23 1025.17 1025.11 1025.05 1024.99 1024.92 1024.79 1024.60 1024.31
1017.15 1017.50 1017.74 1017.86 1017.83 1017.66 1017.40 1017.10 1016.83 1016.65 1016.63 1016.80 1017.18 1017.77 1018.52 1019.40 1020.34 1021.29 1022.21 1023.05 1023.77 1024.38 1024.85 1025.20 1025.44 1025.57 1025.62 1025.61 1025.57 1025.51 1025.44 1025.39 1025.35 1025.31 1025.25 1025.16 1025.00 1024.75
1016.41 1016.77 1017.05 1017.23 1017.29 1017.23 1017.08 1016.90 1016.73 1016.65 1016.71 1016.95 1017.38 1018.00 1018.78 1019.67 1020.63 1021.60 1022.52 1023.37 1024.11 1024.72 1025.19 1025.54 1025.78 1025.91 1025.96 1025.95 1025.90 1025.83 1025.77 1025.71 1025.67 1025.63 1025.58 1025.49 1025.36 1025.14
1015.64 1016.02 1016.33 1016.57 1016.70 1016.73 1016.68 1016.60 1016.53 1016.53 1016.65 1016.94 1017.41 1018.07 1018.87 1019.78 1020.76 1021.75 1022.70 1023.57 1024.33 1024.97 1025.47 1025.84 1026.10 1026.25 1026.31 1026.31 1026.27 1026.20 1026.13 1026.06 1026.00 1025.95 1025.89 1025.80 1025.68 1025.48
1014.89 1015.28 1015.63 1015.91 1016.11 1016.20 1016.22 1016.21 1016.20 1016.26 1016.43 1016.76 1017.25 1017.93 1018.75 1019.68 1020.69 1021.70 1022.69 1023.60 1024.41 1025.09 1025.64 1026.06 1026.36 1026.55 1026.64 1026.67 1026.64 1026.58 1026.50 1026.41 1026.33 1026.26 1026.18 1026.09 1025.97 1025.80
1014.19 1014.60 1014.98 1015.29 1015.53 1015.67 1015.73 1015.76 1015.78 1015.87 1016.06 1016.40 1016.91 1017.59 1018.42 1019.37 1020.40 1021.45 1022.48 1023.44 1024.30 1025.05 1025.66 1026.14 1026.50 1026.75 1026.90 1026.96 1026.96 1026.91 1026.84 1026.75 1026.65 1026.56 1026.46 1026.36 1026.24 1026.09
1013.54 1013.97 1014.38 1014.73 1014.99 1015.15 1015.23 1015.27 1015.31 1015.39 1015.58 1015.92 1016.42 1017.10 1017.93 1018.89 1019.94 1021.02 1022.09 1023.10 1024.02 1024.83 1025.51 1026.07 1026.50 1026.81 1027.03 1027.15 1027.19 1027.18 1027.12 1027.04 1026.94 1026.84 1026.73 1026.63 1026.51 1026.38
1012.96 1013.42 1013.85 1014.22 1014.49 1014.67 1014.76 1014.79 1014.82 1014.89 1015.07 1015.38 1015.87 1016.53 1017.36 1018.32 1019.38 1020.48 1021.57 1022.62 1023.59 1024.45 1025.20 1025.83 1026.33 1026.72 1027.00 1027.19 1027.30 1027.34 1027.32 1027.27 1027.19 1027.10 1027.00 1026.90 1026.80 1026.68
1012.42 1012.92 1013.37 1013.76 1014.04 1014.22 1014.31 1014.34 1014.36 1014.42 1014.57 1014.87 1015.34 1015.99 1016.80 1017.76 1018.80 1019.91 1021.01 1022.08 1023.07 1023.97 1024.76 1025.44 1026.01 1026.47 1026.83 1027.09 1027.28 1027.39 1027.43 1027.43 1027.40 1027.34 1027.27 1027.20 1027.11 1027.02
1011.92 1012.43 1012.91 1013.31 1013.61 1013.80 1013.89 1013.92 1013.95 1014.01 1014.16 1014.46 1014.91 1015.55 1016.34 1017.28 1018.30 1019.38 1020.47 1021.53 1022.52 1023.43 1024.25 1024.96 1025.58 1026.10 1026.54 1026.88 1027.15 1027.34 1027.47 1027.54 1027.57 1027.56 1027.54 1027.50 1027.45 1027.38
1011.40 1011.94 1012.43 1012.85 1013.17 1013.37 1013.49 1013.55 1013.59 1013.68 1013.85 1014.16 1014.62 1015.24 1016.02 1016.93 1017.92 1018.96 1020.01 1021.03 1022.00 1022.89 1023.71 1024.44 1025.10 1025.67 1026.17 1026.60 1026.94 1027.22 1027.44 1027.59 1027.70 1027.76 1027.79 1027.80 1027.78 1027.75
1010.84 1011.39 1011.90 1012.33 1012.68 1012.92 1013.07 1013.18 1013.27 1013.40 1013.62 1013.96 1014.44 1015.06 1015.83 1016.70 1017.66 1018.65 1019.64 1020.61 1021.54 1022.40 1023.20 1023.94 1024.61 1025.23 1025.78 1026.28 1026.71 1027.08 1027.38 1027.61 1027.79 1027.92 1028.01 1028.06 1028.09 1028.08
1010.20 1010.76 1011.28 1011.74 1012.11 1012.39 1012.60 1012.77 1012.94 1013.14 1013.42 1013.81 1014.33 1014.97 1015.72 1016.57 1017.48 1018.42 1019.35 1020.27 1021.14 1021.97 1022.75 1023.48 1024.17 1024.82 1025.43 1025.98 1026.48 1026.92 1027.30 1027.60 1027.85 1028.04 1028.17 1028.27 1028.33 1028.35
1009.47 1010.03 1010.56 1011.04 1011.45 1011.78 1012.06 1012.31 1012.56 1012.85 1013.21 1013.66 1014.22 1014.88 1015.64 1016.46 1017.33 1018.22 1019.10 1019.97 1020.80 1021.59 1022.36 1023.09 1023.80 1024.48 1025.13 1025.74 1026.29 1026.79 1027.22 1027.58 1027.87 1028.10 1028.27 1028.39 1028.48 1028.53
1008.66 1009.23 1009.77 1010.26 1010.70 1011.09 1011.43 1011.77 1012.10 1012.48 1012.92 1013.44 1014.05 1014.74 1015.50 1016.31 1017.16 1018.01 1018.85 1019.68 1020.48 1021.26 1022.03 1022.77 1023.50 1024.22 1024.91 1025.56 1026.16 1026.69 1027.16 1027.55 1027.86 1028.11 1028.29 1028.43 1028.53 1028.59
1007.82 1008.38 1008.92 1009.43 1009.90 1010.33 1010.74 1011.14 1011.56 1012.02 1012.54 1013.12 1013.77 1014.49 1015.26 1016.07 1016.90 1017.73 1018.56 1019.37 1020.17 1020.96 1021.75 1022.52 1023.29 1024.04 1024.77 1025.46 1026.09 1026.65 1027.13 1027.53 1027.85 1028.09 1028.27 1028.40 1028.50 1028.57
1007.00 1007.55 1008.09 1008.60 1009.09 1009.55 1010.01 1010.47 1010.96 1011.48 1012.06 1012.69 1013.39 1014.13 1014.92 1015.73 1016.56 1017.39 1018.21 1019.04 1019.86 1020.68 1021.50 1022.32 1023.13 1023.93 1024.70 1025.43 1026.08 1026.66 1027.15 1027.54 1027.84 1028.07 1028.24 1028.35 1028.44 1028.50
1006.25 1006.79 1007.32 1007.82 1008.32 1008.80 1009.29 1009.80 1010.33 1010.91 1011.53 1012.20 1012.92 1013.69 1014.49 1015.31 1016.14 1016.99 1017.83 1018.68 1019.54 1020.41 1021.28 1022.16 1023.03 1023.88 1024.69 1025.45 1026.13 1026.72 1027.21 1027.60 1027.89 1028.09 1028.24 1028.33 1028.40 1028.45
1005.61 1006.13 1006.64 1007.14 1007.63 1008.12 1008.63 1009.16 1009.72 1010.33 1010.98 1011.68 1012.43 1013.21 1014.02 1014.85 1015.70 1016.57 1017.44 1018.33 1019.24 1020.15 1021.09 1022.02 1022.95 1023.85 1024.72 1025.51 1026.22 1026.82 1027.32 1027.71 1027.99 1028.18 1028.31 1028.39 1028.44 1028.48
1005.09 1005.59 1006.07 1006.55 1007.03 1007.52 1008.03 1008.58 1009.16 1009.79 1010.47 1011.19 1011.95 1012.74 1013.57 1014.42 1015.28 1016.17 1017.08 1018.01 1018.95 1019.92 1020.91 1021.90 1022.88 1023.84 1024.75 1025.58 1026.32 1026.96 1027.47 1027.87 1028.16 1028.36 1028.48 1028.55 1028.59 1028.62
1004.65 1005.13 1005.59 1006.05 1006.52 1007.01 1007.52 1008.08 1008.68 1009.32 1010.01 1010.75 1011.53 1012.34 1013.18 1014.04 1014.93 1015.84 1016.77 1017.73 1018.71 1019.72 1020.75 1021.78 1022.81 1023.81 1024.76 1025.64 1026.42 1027.09 1027.64 1028.07 1028.39 1028.61 1028.75 1028.82 1028.86 1028.88
Thickness
5495 5494 5493 5492 5491 5490 5488 5487 5486 5486 5491 5492 5492 5493 5492 5492 5492 5492 5492 5492 5493 5493 5493 5495 5496 5497 5499 5501 5502 5504 5506 5507 5509 5511 5514 5516 5519 5521
5485 5484 5483 5482 5481 5480 5478 5478 5477 5476 5478 5483 5482 5482 5482 5482 5482 5482 5482 5483 5483 5484 5485 5486 5488 5489 5491 5492 5493 5495 5496 5498 5500 5502 5505 5508 5510 5513
5476 5474 5473 5472 5471 5470 5469 5469 5468 5467 5468 5471 5472 5472 5472 5471 5472 5472 5473 5474 5475 5475 5476 5478 5480 5481 5482 5483 5485 5486 5488 5489 5491 5493 5496 5499 5501 5504
5468 5465 5464 5462 5461 5461 5460 5459 5459 5459 5458 5460 5461 5461 5462 5462 5463 5464 5464 5465 5466 5467 5468 5470 5471 5473 5474 5476 5477 5478 5479 5481 5482 5484 5487 5490 5492 5494
5460 5458 5456 5454 5453 5452 5452 5451 5450 5451 5450 5450 5451 5451 5452 5453 5454 5454 5455 5456 5457 5459 5460 5462 5464 5465 5467 5468 5469 5470 5471 5473 5474 5476 5478 5481 5483 5485
5452 5450 5449 5447 5446 5445 5444 5443 5442 5441 5440 5440 5440 5442 5442 5444 5444 5444 5446 5447 5449 5451 5452 5454 5456 5458 5460 5461 5463 5464 5464 5465 5467 5468 5470 5472 5473 5475
5444 5442 5442 5441 5440 5439 5438 5436 5435 5433 5432 5431 5431 5432 5433 5434 5434 5435 5436 5439 5441 5443 5444 5446 5448 5451 5453 5455 5456 5457 5457 5458 5459 5461 5462 5464 5465 5467
5435 5435 5434 5434 5433 5432 5431 5430 5429 5426 5425 5424 5424 5424 5426 5426 5426 5427 5427 5429 5432 5434 5434 5438 5440 5443 5445 5447 5449 5450 5450 5451 5452 5453 5454 5455 5458 5460
5427 5426 5426 5426 5425 5423 5423 5422 5421 5420 5420 5419 5418 5418 5419 5419 5419 5419 5420 5420 5422 5425 5426 5430 5432 5434 5437 5439 5441 5442 5442 5443 5444 5444 5445 5447 5449 5452
5419 5418 5417 5417 5417 5416 5414 5414 5413 5412 5413 5413 5413 5413 5413 5413 5413 5413 5413 5413 5415 5416 5418 5420 5423 5425 5429 5431 5433 5434 5435 5435 5435 5436 5437 5439 5441 5443
5412 5411 5410 5410 5411 5409 5408 5406 5406 5406 5406 5406 5406 5407 5407 5407 5407 5406 5405 5405 5407 5410 5410 5410 5414 5416 5420 5423 5425 5425 5426 5426 5427 5428 5429 5430 5432 5433
5405 5404 5404 5403 5403 5403 5401 5400 5399 5400 5399 5399 5399 5399 5399 5400 5400 5399 5399 5398 5399 5402 5403 5402 5404 5405 5409 5414 5415 5416 5416 5417 5418 5419 5421 5422 5423 5424
5398 5398 5397 5397 5397 5397 5396 5395 5395 5394 5393 5393 5392 5392 5393 5393 5393 5393 5392 5392 5392 5394 5396 5395 5396 5396 5397 5402 5406 5408 5409 5409 5410 5411 5413 5414 5415 5416
5392 5391 5391 5391 5391 5391 5390 5390 5389 5388 5387 5386 5386 5386 5386 5387 5387 5387 5386 5387 5388 5389 5390 5389 5390 5391 5391 5392 5396 5400 5401 5402 5403 5404 5405 5407 5408 5409
5385 5385 5385 5385 5385 5384 5383 5383 5382 5381 5381 5380 5380 5381 5381 5380 5380 5380 5381 5381 5382 5383 5384 5384 5385 5385 5385 5387 5389 5391 5393 5395 5395 5396 5398 5399 5401 5403
5378 5377 5377 5377 5377 5377 5377 5376 5376 5376 5375 5374 5374 5374 5374 5373 5374 5374 5374 5375 5376 5377 5378 5379 5379 5380 5380 5381 5383 5385 5386 5387 5389 5389 5391 5393 5394 5396
5371 5369 5369 5369 5369 5370 5370 5370 5370 5369 5369 5369 5368 5367 5368 5368 5368 5368 5368 5368 5369 5370 5372 5372 5373 5374 5375 5376 5377 5379 5381 5381 5382 5383 5384 5386 5388 5390
5365 5364 5363 5363 5364 5364 5364 5364 5364 5364 5364 5363 5362 5362 5362 5362 5362 5363 5362 5363 5363 5364 5365 5365 5366 5367 5368 5370 5371 5373 5374 5375 5376 5376 5377 5379 5383 5385
5360 5359 5359 5359 5359 5359 5358 5358 5358 5358 5358 5357 5357 5357 5357 5357 5357 5357 5357 5357 5357 5357 5358 5358 5359 5361 5362 5364 5365 5366 5367 5368 5369 5370 5371 5373 5376 5380
5355 5355 5355 5355 5355 5354 5354 5353 5353 5353 5352 5352 5352 5352 5352 5352 5351 5351 5351 5351 5351 5352 5353 5353 5354 5355 5357 5358 5359 5360 5361 5362 5363 5365 5366 5368 5371 5374
5350 5350 5350 5350 5350 5350 5349 5349 5348 5348 5347 5347 5347 5346 5346 5347 5346 5346 5346 5346 5347 5347 5348 5349 5350 5351 5351 5352 5353 5355 5356 5357 5358 5360 5363 5364 5367 5369
5344 5345 5345 5345 5345 5345 5345 5344 5344 5343 5343 5342 5342 5342 5342 5342 5341 5341 5341 5342 5343 5344 5345 5345 5346 5347 5347 5348 5349 5350 5352 5353 5355 5357 5358 5361 5362 5365
5340 5340 5340 5341 5341 5341 5340 5340 5340 5339 5339 5338 5338 5338 5338 5338 5337 5337 5337 5338 5339 5340 5341 5341 5342 5342 5343 5344 5344 5345 5346 5348 5351 5354 5355 5357 5359 5361